Radiation Dose at Monitoring Post of Fukushima Daini Nuclear Power Station
Date,Time,MP-1(microSv/h),MP-2(microSv/h),MP-3(microSv/h),MP-4(microSv/h),MP-5(microSv/h),MP-6(microSv/h),MP-7(microSv/h),Wind Direction,Wind Velocity(m/s),Rain
2023/06/25,00:00,0.143,0.132,0.208,0.199,0.209,0.115,0.075,-,CALM,No
2023/06/25,00:10,0.144,0.132,0.206,0.197,0.210,0.115,0.075,-,CALM,No
2023/06/25,00:20,0.144,0.132,0.207,0.198,0.209,0.116,0.075,north,1.2,No
2023/06/25,00:30,0.143,0.133,0.207,0.199,0.208,0.115,0.076,north-northwest,2.3,No
2023/06/25,00:40,0.145,0.133,0.208,0.198,0.211,0.115,0.076,north-northwest,2.8,No
2023/06/25,00:50,0.143,0.134,0.207,0.200,0.209,0.116,0.076,north-northwest,1.6,No
2023/06/25,01:00,0.144,0.133,0.207,0.198,0.211,0.117,0.076,north,1.8,No
2023/06/25,01:10,0.145,0.133,0.208,0.200,0.209,0.117,0.075,north,2.0,No
2023/06/25,01:20,0.144,0.133,0.208,0.200,0.211,0.116,0.076,north,2.2,Yes
2023/06/25,01:30,0.145,0.132,0.207,0.200,0.209,0.116,0.075,north,2.3,No
2023/06/25,01:40,0.143,0.133,0.208,0.200,0.210,0.116,0.076,north,2.3,No
2023/06/25,01:50,0.145,0.133,0.207,0.201,0.210,0.116,0.076,north-northwest,1.5,No
2023/06/25,02:00,0.143,0.133,0.207,0.199,0.207,0.115,0.076,north,2.6,No
2023/06/25,02:10,0.144,0.131,0.207,0.199,0.212,0.116,0.076,north-northwest,1.7,No
2023/06/25,02:20,0.144,0.133,0.207,0.199,0.207,0.115,0.076,north-northwest,2.7,No
2023/06/25,02:30,0.143,0.133,0.206,0.199,0.210,0.115,0.076,north-northwest,4.3,No
2023/06/25,02:40,0.144,0.132,0.206,0.201,0.208,0.115,0.074,north-northwest,3.4,No
2023/06/25,02:50,0.142,0.131,0.207,0.198,0.208,0.115,0.075,north-northwest,3.0,No
2023/06/25,03:00,0.144,0.131,0.205,0.200,0.210,0.114,0.075,north-northwest,2.2,No
2023/06/25,03:10,0.143,0.131,0.207,0.198,0.208,0.115,0.075,north-northwest,3.7,No
2023/06/25,03:20,0.142,0.132,0.205,0.199,0.209,0.115,0.075,north-northwest,4.5,No
2023/06/25,03:30,0.144,0.130,0.208,0.198,0.208,0.115,0.075,north-northwest,5.5,No
2023/06/25,03:40,0.143,0.131,0.205,0.199,0.211,0.114,0.075,north-northwest,5.0,No
2023/06/25,03:50,0.145,0.132,0.207,0.198,0.208,0.115,0.076,north-northwest,4.8,No
2023/06/25,04:00,0.143,0.132,0.206,0.198,0.209,0.115,0.074,north-northwest,5.1,No
2023/06/25,04:10,0.144,0.132,0.206,0.200,0.209,0.115,0.074,north-northwest,4.4,No
2023/06/25,04:20,0.143,0.132,0.205,0.198,0.209,0.115,0.075,north-northwest,4.7,No
2023/06/25,04:30,0.144,0.132,0.206,0.199,0.209,0.114,0.074,north-northwest,4.3,No
2023/06/25,04:40,0.145,0.131,0.205,0.197,0.208,0.115,0.075,north-northwest,3.8,No
2023/06/25,04:50,0.142,0.131,0.207,0.198,0.209,0.115,0.075,north-northwest,4.2,No
2023/06/25,05:00,0.143,0.131,0.206,0.198,0.207,0.115,0.075,north-northwest,4.5,No
2023/06/25,05:10,0.144,0.132,0.205,0.198,0.209,0.114,0.074,north-northwest,3.5,No
2023/06/25,05:20,0.144,0.130,0.207,0.198,0.209,0.114,0.075,north,2.7,No
2023/06/25,05:30,0.143,0.131,0.204,0.197,0.207,0.115,0.075,north-northwest,2.6,No
2023/06/25,05:40,0.142,0.131,0.206,0.198,0.208,0.114,0.074,north-northwest,2.5,No
2023/06/25,05:50,0.145,0.131,0.205,0.198,0.209,0.116,0.075,north,3.2,No
2023/06/25,06:00,0.142,0.131,0.206,0.199,0.206,0.114,0.074,north-northwest,3.0,No
2023/06/25,06:10,0.143,0.131,0.204,0.197,0.207,0.114,0.074,north-northwest,3.0,No
2023/06/25,06:20,0.144,0.130,0.206,0.197,0.208,0.115,0.074,north-northwest,2.8,No
2023/06/25,06:30,0.142,0.130,0.206,0.199,0.206,0.113,0.073,north-northwest,2.9,No
2023/06/25,06:40,0.144,0.130,0.203,0.197,0.207,0.115,0.073,north,2.6,No
2023/06/25,06:50,0.143,0.130,0.205,0.197,0.207,0.114,0.074,north,2.7,No
2023/06/25,07:00,0.142,0.130,0.205,0.197,0.209,0.114,0.073,north-northwest,2.2,No
2023/06/25,07:10,0.143,0.132,0.205,0.197,0.207,0.114,0.073,north-northeast,0.7,No
2023/06/25,07:20,0.143,0.131,0.204,0.196,0.206,0.114,0.073,north-northeast,1.9,No
2023/06/25,07:30,0.143,0.130,0.202,0.196,0.206,0.113,0.073,north-northeast,1.8,No
2023/06/25,07:40,0.142,0.130,0.202,0.197,0.210,0.114,0.074,north-northeast,1.1,No
2023/06/25,07:50,0.144,0.130,0.206,0.197,0.209,0.114,0.073,north-northeast,1.7,No
2023/06/25,08:00,0.143,0.131,0.206,0.196,0.206,0.113,0.075,north,2.4,No
2023/06/25,08:10,0.141,0.131,0.205,0.195,0.206,0.113,0.075,north-northeast,2.3,No
2023/06/25,08:20,0.143,0.131,0.203,0.196,0.208,0.113,0.075,north-northeast,1.6,No
2023/06/25,08:30,0.144,0.131,0.204,0.199,0.209,0.114,0.073,north-northeast,1.7,No
2023/06/25,08:40,0.143,0.132,0.207,0.199,0.209,0.113,0.074,northeast,2.6,No
2023/06/25,08:50,0.142,0.130,0.205,0.196,0.206,0.113,0.074,northeast,2.6,No
2023/06/25,09:00,0.144,0.131,0.204,0.195,0.206,0.114,0.075,east,1.0,No
2023/06/25,09:10,0.143,0.131,0.204,0.198,0.209,0.114,0.074,northeast,2.3,No
2023/06/25,09:20,0.142,0.131,0.206,0.198,0.208,0.114,0.074,northeast,2.1,No
2023/06/25,09:30,0.143,0.130,0.207,0.197,0.207,0.113,0.075,east-northeast,1.4,No
2023/06/25,09:40,0.144,0.131,0.204,0.196,0.206,0.115,0.074,north-northeast,1.3,No
2023/06/25,09:50,0.142,0.131,0.203,0.199,0.207,0.115,0.074,northeast,0.6,No
2023/06/25,10:00,0.140,0.131,0.205,0.198,0.208,0.113,0.073,northeast,0.9,No
2023/06/25,10:10,0.142,0.130,0.207,0.198,0.209,0.113,0.074,northeast,0.8,No
2023/06/25,10:20,0.144,0.130,0.205,0.196,0.207,0.114,0.074,northeast,0.8,No
2023/06/25,10:30,0.142,0.132,0.203,0.196,0.207,0.113,0.074,north,0.7,No
2023/06/25,10:40,0.141,0.132,0.204,0.195,0.205,0.113,0.074,northeast,0.9,No
2023/06/25,10:50,0.141,0.130,0.207,0.199,0.206,0.113,0.073,southeast,0.6,No
2023/06/25,11:00,0.143,0.130,0.206,0.198,0.206,0.114,0.073,east,1.4,No
2023/06/25,11:10,0.143,0.129,0.206,0.198,0.206,0.114,0.073,east-northeast,1.9,No
2023/06/25,11:20,0.142,0.130,0.204,0.197,0.206,0.114,0.073,east-southeast,0.6,No
2023/06/25,11:30,0.142,0.130,0.205,0.197,0.207,0.114,0.074,east-northeast,1.1,No
2023/06/25,11:40,0.141,0.130,0.204,0.196,0.206,0.114,0.073,east-southeast,0.9,No
2023/06/25,11:50,0.141,0.130,0.205,0.197,0.207,0.114,0.074,east-southeast,1.8,No
2023/06/25,12:00,0.141,0.131,0.204,0.196,0.206,0.114,0.073,east,1.5,No
2023/06/25,12:10,0.141,0.131,0.204,0.197,0.207,0.114,0.073,east-southeast,1.6,No
2023/06/25,12:20,0.142,0.131,0.204,0.196,0.207,0.114,0.073,northeast,2.4,No
2023/06/25,12:30,0.141,0.132,0.204,0.197,0.207,0.114,0.073,east-northeast,2.0,No
2023/06/25,12:40,0.141,0.131,0.205,0.197,0.207,0.114,0.072,east-northeast,1.9,No
2023/06/25,12:50,0.143,0.131,0.204,0.197,0.208,0.114,0.073,east,2.3,No
2023/06/25,13:00,0.144,0.130,0.205,0.195,0.207,0.114,0.073,east,2.7,No
2023/06/25,13:10,0.143,0.131,0.204,0.195,0.208,0.115,0.073,east,2.1,No
2023/06/25,13:20,0.142,0.131,0.204,0.197,0.209,0.114,0.073,east,3.1,No
2023/06/25,13:30,0.142,0.131,0.205,0.197,0.207,0.113,0.073,east,1.9,No
2023/06/25,13:40,0.142,0.130,0.204,0.198,0.208,0.115,0.075,east,1.8,No
2023/06/25,13:50,0.142,0.130,0.209,0.196,0.209,0.114,0.074,east-southeast,2.0,No
2023/06/25,14:00,0.142,0.130,0.209,0.197,0.207,0.114,0.073,east,2.4,No
2023/06/25,14:10,0.141,0.130,0.207,0.197,0.207,0.114,0.074,east,1.7,No
2023/06/25,14:20,0.141,0.131,0.207,0.196,0.208,0.114,0.074,east,2.0,No
2023/06/25,14:30,0.142,0.130,0.206,0.197,0.208,0.114,0.075,east,2.0,No
2023/06/25,14:40,0.141,0.130,0.204,0.198,0.209,0.114,0.073,east,1.5,No
2023/06/25,14:50,0.142,0.131,0.205,0.196,0.208,0.114,0.073,east-southeast,1.2,No
2023/06/25,15:00,0.142,0.130,0.205,0.198,0.209,0.115,0.073,east,1.9,No
2023/06/25,15:10,0.142,0.130,0.206,0.198,0.208,0.114,0.074,east-northeast,2.3,No
2023/06/25,15:20,0.142,0.130,0.206,0.198,0.208,0.113,0.073,east,2.1,No
2023/06/25,15:30,0.142,0.131,0.205,0.198,0.208,0.114,0.073,east-southeast,2.1,No
2023/06/25,15:40,0.143,0.132,0.206,0.197,0.208,0.114,0.073,east,1.9,No
2023/06/25,15:50,0.144,0.133,0.205,0.196,0.207,0.115,0.074,east,1.6,No
2023/06/25,16:00,0.144,0.132,0.209,0.199,0.207,0.115,0.074,east,1.9,No
2023/06/25,16:10,0.143,0.130,0.207,0.201,0.207,0.113,0.073,southeast,1.0,No
2023/06/25,16:20,0.141,0.131,0.205,0.199,0.206,0.114,0.073,southeast,1.2,No
2023/06/25,16:30,0.142,0.131,0.206,0.198,0.208,0.114,0.074,southeast,1.2,No
2023/06/25,16:40,0.143,0.131,0.208,0.198,0.207,0.114,0.075,-,CALM,No
2023/06/25,16:50,0.143,0.131,0.207,0.200,0.212,0.114,0.073,south-southeast,0.8,No
2023/06/25,17:00,0.142,0.131,0.205,0.199,0.211,0.114,0.073,southeast,0.9,No
2023/06/25,17:10,0.142,0.131,0.207,0.198,0.208,0.113,0.074,southeast,1.1,No
2023/06/25,17:20,0.144,0.132,0.207,0.199,0.207,0.115,0.073,southeast,1.0,No
2023/06/25,17:30,0.144,0.133,0.206,0.199,0.208,0.115,0.072,east-southeast,1.2,No
2023/06/25,17:40,0.144,0.132,0.207,0.198,0.207,0.114,0.074,east-southeast,0.6,No
2023/06/25,17:50,0.143,0.132,0.209,0.199,0.206,0.114,0.074,-,CALM,No
2023/06/25,18:00,0.142,0.132,0.207,0.201,0.207,0.115,0.073,-,CALM,No
2023/06/25,18:10,0.144,0.131,0.206,0.198,0.210,0.114,0.074,-,CALM,No
2023/06/25,18:20,0.143,0.130,0.208,0.197,0.209,0.114,0.074,-,CALM,No
2023/06/25,18:30,0.142,0.132,0.206,0.200,0.209,0.115,0.073,south-southeast,0.9,No
2023/06/25,18:40,0.142,0.132,0.205,0.200,0.209,0.114,0.073,south-southeast,1.0,No
2023/06/25,18:50,0.144,0.131,0.209,0.198,0.212,0.114,0.074,south,0.7,No
2023/06/25,19:00,0.143,0.132,0.206,0.200,0.208,0.115,0.074,south-southeast,0.7,No
2023/06/25,19:10,0.143,0.130,0.207,0.197,0.208,0.114,0.074,-,CALM,No
2023/06/25,19:20,0.143,0.131,0.207,0.199,0.211,0.114,0.073,-,CALM,No
2023/06/25,19:30,0.143,0.132,0.207,0.200,0.207,0.115,0.074,-,CALM,No
2023/06/25,19:40,0.143,0.131,0.208,0.197,0.208,0.114,0.074,-,CALM,No
2023/06/25,19:50,0.143,0.131,0.206,0.200,0.211,0.114,0.074,-,CALM,No
2023/06/25,20:00,0.143,0.131,0.206,0.200,0.209,0.115,0.074,-,CALM,No
2023/06/25,20:10,0.143,0.131,0.208,0.197,0.207,0.114,0.075,-,CALM,No
2023/06/25,20:20,0.144,0.131,0.206,0.200,0.210,0.115,0.073,-,CALM,No
2023/06/25,20:30,0.142,0.131,0.209,0.197,0.208,0.115,0.074,east,0.6,No
2023/06/25,20:40,0.144,0.132,0.207,0.199,0.209,0.114,0.074,north-northeast,0.6,Yes
2023/06/25,20:50,0.144,0.131,0.206,0.200,0.210,0.114,0.074,-,CALM,No
2023/06/25,21:00,0.142,0.131,0.207,0.198,0.207,0.115,0.074,-,CALM,No
2023/06/25,21:10,0.144,0.132,0.207,0.200,0.208,0.113,0.074,-,CALM,Yes
2023/06/25,21:20,0.143,0.131,0.208,0.199,0.209,0.115,0.074,south-southwest,0.9,No
2023/06/25,21:30,0.143,0.132,0.208,0.200,0.207,0.114,0.074,-,CALM,No
2023/06/25,21:40,0.144,0.131,0.206,0.200,0.211,0.114,0.075,-,CALM,No
2023/06/25,21:50,0.143,0.132,0.208,0.198,0.208,0.115,0.074,-,CALM,No
2023/06/25,22:00,0.144,0.132,0.207,0.200,0.208,0.114,0.074,-,CALM,No
2023/06/25,22:10,0.144,0.131,0.207,0.198,0.210,0.114,0.074,-,CALM,No
2023/06/25,22:20,0.143,0.133,0.206,0.200,0.207,0.114,0.074,-,CALM,No
2023/06/25,22:30,0.144,0.131,0.209,0.200,0.210,0.114,0.075,-,CALM,No
2023/06/25,22:40,0.143,0.133,0.208,0.199,0.208,0.115,0.074,-,CALM,No
2023/06/25,22:50,0.143,0.132,0.207,0.201,0.208,0.115,0.074,north-northwest,0.8,No
2023/06/25,23:00,0.144,0.131,0.207,0.198,0.210,0.114,0.074,north-northwest,0.9,No
2023/06/25,23:10,0.143,0.132,0.207,0.201,0.208,0.114,0.074,north,0.7,No
2023/06/25,23:20,0.143,0.132,0.209,0.200,0.210,0.114,0.074,-,CALM,No
2023/06/25,23:30,0.145,0.132,0.207,0.199,0.209,0.114,0.074,north-northwest,0.6,No
2023/06/25,23:40,0.143,0.131,0.208,0.200,0.208,0.115,0.074,northwest,0.6,No
2023/06/25,23:50,0.145,0.133,0.206,0.198,0.209,0.114,0.075,northwest,0.6,No
